Terminal Aerodrome Forecast
Issued by NWS Austin/San Antonio, TX

Home | Current Version | Previous Version | Text Only | Print | Product List | Glossary On
Versions: 1 2 3 4 5 6 7 8 9 10 11 12 13
000
FTUS44 KEWX 280500
TAFDRT
TAF
KDRT 280535Z 2806/2906 10007KT P6SM SKC
     FM281500 14007KT P6SM FEW050
     FM290300 11005KT P6SM SKC=

USA.gov is the U.S. government's official web portal to all federal, state and local government web resources and services.